OK2ZAW-23 Weather Reports


time (UTC)temp
F
wind
direction
speed
knots
gust
knots
rain 1hr
in
rain 24hr
in
rain mn
in
humidity
%
barometer
mb
20260502214336 50 0 0.0 0.0 0.00 0.00 0.00 45 1017.0
20260502213310 51 0 0.0 0.0 0.00 0.00 0.00 44 1017.0
20260502212757 51 0 0.0 0.0 0.00 0.00 0.00 43 1017.0
20260502212243 51 0 0.0 0.0 0.00 0.00 0.00 43 1017.0
20260502211729 52 0 0.0 0.0 0.00 0.00 0.00 42 1017.1
20260502210149 53 0 0.0 0.0 0.00 0.00 0.00 40 1017.1
20260502203029 54 0 0.0 0.0 0.00 0.00 0.00 36 1017.1
20260502201449 55 0 0.0 0.0 0.00 0.00 0.00 35 1017.2
20260502195354 56 0 0.0 0.0 0.00 0.00 0.00 33 1017.3
20260502193813 57 0 0.0 0.0 0.00 0.00 0.00 31 1017.3
20260502192746 58 0 0.0 0.0 0.00 0.00 0.00 31 1017.3
20260502192232 59 0 0.0 0.0 0.00 0.00 0.00 30 1017.2
20260502191205 61 0 0.0 0.0 0.00 0.00 0.00 28 1017.1
20260502190651 62 0 0.0 0.0 0.00 0.00 0.00 28 1017.0
20260502185623 64 0 0.0 0.0 0.00 0.00 0.00 26 1017.1
20260502183527 68 0 0.0 0.0 0.00 0.00 0.00 22 1016.9
20260502183013 69 0 0.0 0.0 0.00 0.00 0.00 22 1016.8
20260502182459 71 0 0.0 0.0 0.00 0.00 0.00 21 1016.8
20260502181431 75 0 0.0 0.0 0.00 0.00 0.00 20 1016.7
20260502163952 99 0 0.0 0.0 0.00 0.00 0.00 14 1016.9
20260502163436 100 0 0.0 0.0 0.00 0.00 0.00 14 1016.9
20260502162919 99 0 0.0 0.0 0.00 0.00 0.00 15 1016.9
20260502162404 98 0 0.0 0.0 0.00 0.00 0.00 15 1017.0
20260502161331 98 0 0.0 0.0 0.00 0.00 0.00 14 1017.2
20260502151019 96 0 0.0 0.0 0.00 0.00 0.00 17 1018.0
20260502150503 95 0 0.0 0.0 0.00 0.00 0.00 17 1018.0
20260502130411 75 0 0.0 0.0 0.00 0.00 0.00 25 1019.6
20260502122729 72 0 0.0 0.0 0.00 0.00 0.00 25 1020.0
20260502122215 73 0 0.0 0.0 0.00 0.00 0.00 28 1020.2
20260502121700 72 0 0.0 0.0 0.00 0.00 0.00 27 1020.2
20260502120117 71 0 0.0 0.0 0.00 0.00 0.00 29 1020.3
20260502115603 70 0 0.0 0.0 0.00 0.00 0.00 28 1020.4
20260502115049 70 0 0.0 0.0 0.00 0.00 0.00 29 1020.4
20260502114535 69 0 0.0 0.0 0.00 0.00 0.00 27 1020.5
20260502113506 70 0 0.0 0.0 0.00 0.00 0.00 29 1020.8
20260502112952 70 0 0.0 0.0 0.00 0.00 0.00 31 1020.7
20260502111409 69 0 0.0 0.0 0.00 0.00 0.00 29 1020.9
20260502105827 70 0 0.0 0.0 0.00 0.00 0.00 34 1021.0
20260502105312 70 0 0.0 0.0 0.00 0.00 0.00 35 1021.2
20260502102702 68 0 0.0 0.0 0.00 0.00 0.00 37 1021.4
20260502102147 68 0 0.0 0.0 0.00 0.00 0.00 38 1021.5
20260502101119 68 0 0.0 0.0 0.00 0.00 0.00 37 1021.6
20260502091345 64 0 0.0 0.0 0.00 0.00 0.00 39 1022.2
20260502071328 58 0 0.0 0.0 0.00 0.00 0.00 66 1022.7
20260502070814 57 0 0.0 0.0 0.00 0.00 0.00 67 1022.7
20260502065235 55 0 0.0 0.0 0.00 0.00 0.00 67 1022.9
20260502063653 53 0 0.0 0.0 0.00 0.00 0.00 77 1022.9
20260502063140 52 0 0.0 0.0 0.00 0.00 0.00 77 1022.9
20260502061600 49 0 0.0 0.0 0.00 0.00 0.00 81 1022.9
20260502061047 49 0 0.0 0.0 0.00 0.00 0.00 81 1023.0
20260502060021 47 0 0.0 0.0 0.00 0.00 0.00 83 1023.0
20260502055508 46 0 0.0 0.0 0.00 0.00 0.00 83 1023.0
20260502054955 46 0 0.0 0.0 0.00 0.00 0.00 84 1022.9
20260502054441 45 0 0.0 0.0 0.00 0.00 0.00 84 1023.0
20260502053415 44 0 0.0 0.0 0.00 0.00 0.00 85 1022.9
20260502051836 42 0 0.0 0.0 0.00 0.00 0.00 87 1023.0
20260502051324 42 0 0.0 0.0 0.00 0.00 0.00 87 1023.0
20260502050811 41 0 0.0 0.0 0.00 0.00 0.00 87 1022.9
20260502045745 41 0 0.0 0.0 0.00 0.00 0.00 89 1022.9
20260502045232 40 0 0.0 0.0 0.00 0.00 0.00 89 1022.9
20260502044206 39 0 0.0 0.0 0.00 0.00 0.00 89 1022.9
20260502043653 39 0 0.0 0.0 0.00 0.00 0.00 89 1022.8
20260502043141 39 0 0.0 0.0 0.00 0.00 0.00 89 1022.9
20260502041603 38 0 0.0 0.0 0.00 0.00 0.00 91 1022.8
20260502040537 38 0 0.0 0.0 0.00 0.00 0.00 89 1022.8
20260502035511 38 0 0.0 0.0 0.00 0.00 0.00 88 1022.8
20260502034445 37 0 0.0 0.0 0.00 0.00 0.00 89 1022.7
20260502033933 38 0 0.0 0.0 0.00 0.00 0.00 89 1022.7
20260502033420 38 0 0.0 0.0 0.00 0.00 0.00 89 1022.7
20260502032907 38 0 0.0 0.0 0.00 0.00 0.00 89 1022.7
20260502032355 38 0 0.0 0.0 0.00 0.00 0.00 89 1022.7
20260502031842 38 0 0.0 0.0 0.00 0.00 0.00 89 1022.7
20260502031329 38 0 0.0 0.0 0.00 0.00 0.00 89 1022.7
20260502023659 38 0 0.0 0.0 0.00 0.00 0.00 89 1022.9
20260502022634 38 0 0.0 0.0 0.00 0.00 0.00 89 1022.9
20260502015517 40 0 0.0 0.0 0.00 0.00 0.00 85 1023.0
20260502014451 41 0 0.0 0.0 0.00 0.00 0.00 85 1023.1
20260502011847 41 0 0.0 0.0 0.00 0.00 0.00 88 1023.2
20260502011334 41 0 0.0 0.0 0.00 0.00 0.00 86 1023.1
20260502010821 41 0 0.0 0.0 0.00 0.00 0.00 87 1023.2
20260502005755 41 0 0.0 0.0 0.00 0.00 0.00 88 1023.2
20260502005243 41 0 0.0 0.0 0.00 0.00 0.00 89 1023.2
20260502004729 41 0 0.0 0.0 0.00 0.00 0.00 91 1023.3
20260502004216 41 0 0.0 0.0 0.00 0.00 0.00 89 1023.3
20260502003703 41 0 0.0 0.0 0.00 0.00 0.00 90 1023.3
20260502003150 41 0 0.0 0.0 0.00 0.00 0.00 91 1023.3
20260502002638 41 0 0.0 0.0 0.00 0.00 0.00 90 1023.3
20260502002125 41 0 0.0 0.0 0.00 0.00 0.00 85 1023.3
20260502001059 41 0 0.0 0.0 0.00 0.00 0.00 86 1023.3
20260502000546 41 0 0.0 0.0 0.00 0.00 0.00 82 1023.3
20260502000033 42 0 0.0 0.0 0.00 0.00 0.00 83 1023.3
20260501234454 42 0 0.0 0.0 0.00 0.00 0.00 80 1023.3
20260501233429 42 0 0.0 0.0 0.00 0.00 0.00 80 1023.3
20260501232915 43 0 0.0 0.0 0.00 0.00 0.00 77 1023.4
20260501231336 43 0 0.0 0.0 0.00 0.00 0.00 78 1023.5
20260501230824 44 0 0.0 0.0 0.00 0.00 0.00 77 1023.6
20260501225757 44 0 0.0 0.0 0.00 0.00 0.00 73 1023.6
20260501225244 44 0 0.0 0.0 0.00 0.00 0.00 71 1023.6
20260501224731 44 0 0.0 0.0 0.00 0.00 0.00 70 1023.6
20260501223705 44 0 0.0 0.0 0.00 0.00 0.00 70 1023.6
20260501223152 44 0 0.0 0.0 0.00 0.00 0.00 69 1023.6
20260501221101 45 0 0.0 0.0 0.00 0.00 0.00 66 1023.7
20260501220547 45 0 0.0 0.0 0.00 0.00 0.00 66 1023.7
20260501220034 46 0 0.0 0.0 0.00 0.00 0.00 65 1023.7
20260501215521 46 0 0.0 0.0 0.00 0.00 0.00 67 1023.7
20260501215008 46 0 0.0 0.0 0.00 0.00 0.00 67 1023.8